Location: Kershaw
(34.5481°N, 80.5823°W)
Time: 16:30:12
(UTC+00:00)

Explorer 11/Cluster Stage 4 - All Passes

Search period start: 26 September 2022 00:00
Search period end: 06 October 2022 00:00
Orbit: 466 x 1249 km, 28.8° (Epoch: 25 September)

Date Brightness Start Highest point End Pass type
(mag) Time Alt. Az. Time Alt. Az. Time Alt. Az.
26 Sep - 00:27:50 10° WSW 00:30:42 19° SSW 00:33:23 10° SSE visible
26 Sep - 18:49:16 10° SW 18:54:30 25° SSE 18:58:56 10° ESE daylight
26 Sep - 20:37:19 10° WSW 20:42:44 40° S 20:47:07 10° ESE daylight
26 Sep - 22:26:12 10° WSW 22:30:45 38° S 22:34:33 10° ESE daylight
27 Sep - 00:15:35 10° WSW 00:18:22 17° SSW 00:20:57 10° SSE visible
27 Sep - 16:50:45 10° S 16:53:41 13° SSE 16:56:28 10° SE daylight
27 Sep - 18:36:17 10° SW 18:42:02 29° SSE 18:46:54 10° ESE daylight
27 Sep - 20:24:37 10° WSW 20:30:21 43° S 20:34:59 10° ESE daylight
27 Sep - 22:13:39 10° WSW 22:18:25 37° S 22:22:21 10° ESE daylight
28 Sep - 00:03:19 10° WSW 00:06:01 16° SSW 00:08:28 10° SSE visible
28 Sep - 16:37:01 10° S 16:41:09 15° SSE 16:44:59 10° ESE daylight
28 Sep - 18:23:20 10° SW 18:29:34 32° SSE 18:34:48 10° ESE daylight
28 Sep - 20:11:54 10° WSW 20:17:57 46° S 20:22:49 10° ESE daylight
28 Sep - 22:01:04 10° WSW 22:06:03 37° SSW 22:10:08 10° SE daylight
28 Sep - 23:51:05 10° WSW 23:53:38 15° SSW 23:55:58 10° S visible
29 Sep - 16:23:35 10° SSW 16:28:35 18° SSE 16:33:10 10° ESE daylight
29 Sep - 18:10:26 10° SW 18:17:03 36° SSE 18:22:37 10° ESE daylight
29 Sep - 19:59:10 10° WSW 20:05:31 48° S 20:10:37 10° ESE daylight
29 Sep - 21:48:29 10° W 21:53:41 36° SSW 21:57:53 10° SE daylight
29 Sep - 23:38:50 10° WSW 23:41:13 14° SSW 23:43:24 10° S visible
30 Sep - 16:10:19 10° SSW 16:15:59 21° SSE 16:21:12 10° ESE daylight
30 Sep - 17:57:32 10° SW 18:04:31 40° SSE 18:10:25 10° E daylight
30 Sep - 19:46:27 10° WSW 19:53:04 50° S 19:58:24 10° ESE daylight
30 Sep - 21:35:53 10° W 21:41:15 35° SSW 21:45:37 10° SE daylight
30 Sep - 23:26:39 10° SW 23:28:46 13° SSW 23:30:45 10° S visible
01 Oct - 15:57:10 10° SSW 16:03:21 24° SSE 16:09:05 10° ESE daylight
01 Oct - 17:44:42 10° WSW 17:51:58 44° SSE 17:58:09 10° E daylight
01 Oct - 19:33:43 10° WSW 19:40:35 52° S 19:46:09 10° ESE daylight
01 Oct - 21:23:15 10° W 21:28:48 34° SSW 21:33:20 10° SE daylight
01 Oct - 23:14:32 10° SW 23:16:19 12° SSW 23:17:58 10° S daylight
02 Oct - 15:44:07 10° SSW 15:50:42 27° SSE 15:56:51 10° ESE daylight
02 Oct - 17:31:52 10° WSW 17:39:23 47° S 17:45:51 10° E daylight
02 Oct - 19:20:58 10° WSW 19:28:04 52° S 19:33:52 10° ESE daylight
02 Oct - 21:10:37 10° W 21:16:19 33° SSW 21:21:00 10° SE daylight
02 Oct - 23:02:36 10° SW 23:03:48 11° SSW 23:04:59 10° SSW daylight
03 Oct - 13:47:06 10° SSE 13:49:40 12° SSE 13:52:15 10° SE daylight
03 Oct - 15:31:08 10° SW 15:38:02 30° SSE 15:44:33 10° E daylight
03 Oct - 17:19:04 10° WSW 17:26:46 50° S 17:33:30 10° E daylight
03 Oct - 19:08:14 10° W 19:15:31 53° S 19:21:33 10° ESE daylight
03 Oct - 20:57:58 10° W 21:03:48 32° SSW 21:08:38 10° SE daylight
04 Oct - 13:33:18 10° S 13:36:58 14° SSE 13:40:41 10° ESE daylight
04 Oct - 15:18:13 10° SW 15:25:21 33° SSE 15:32:11 10° E daylight
04 Oct - 17:06:18 10° WSW 17:14:09 52° S 17:21:07 10° E daylight
04 Oct - 18:55:31 10° W 19:02:58 52° S 19:09:12 10° ESE daylight
04 Oct - 20:45:20 10° W 20:51:16 30° SSW 20:56:13 10° SE daylight
05 Oct - 13:19:54 10° S 13:24:16 16° SSE 13:28:43 10° ESE daylight
05 Oct - 15:05:23 10° SW 15:12:39 36° SSE 15:19:45 10° E daylight
05 Oct - 16:53:34 10° WSW 17:01:30 54° S 17:08:41 10° E daylight
05 Oct - 18:42:47 10° W 18:50:22 52° S 18:56:49 10° ESE daylight
05 Oct - 20:32:41 10° W 20:38:41 29° SSW 20:43:45 10° SE daylight
